Location: Helsinki
(60.1699°N, 24.9384°E)
Time: 00:25:56
(UTC+02:00)

Vanguard 2 Rocket - Pass Details

Date: 27 September 2023
Orbit: 553 x 3312 km, 32.9° (Epoch: 28 November)

Event Time Altitude Azimuth Distance (km) Brightness Sun altitude
Rises 13:34:33 0° 228° (SW) 6,860 12.1 28.0°
Reaches altitude 10° 13:40:08 10° 217° (SW) 6,083 12.2 28.0°
Maximum altitude 13:54:18 26° 171° (S) 5,009 12.4 27.6°
Drops below altitude 10° 14:07:46 10° 125° (SE) 5,783 11.3 27.2°
Sets 14:12:52 0° 114° (ESE) 6,474 11.3 27.0°
